Skip Page Navigation
NASA JPL Caltech
NASA Logo - Jet Propulsion Laboratory + View the NASA Portal
+ Center for Near-Earth Object Studies
JPL Home Earth Solar System Stars & Galaxies Technology
JPL Solar System Dynamics
BODIES ORBITS EPHEMERIDES TOOLS PHYSICAL DATA DISCOVERY FAQ SITE MAP
JPL Small-Body Database Browser
Search: [ help ]  
150061 (2006 RE10)
Classification: Main-belt Asteroid          SPK-ID: 2150061
Ephemeris | Orbit Diagram | Orbital Elements | Mission Design | Physical Parameters | Discovery Circumstances ]

[ show orbit diagram ]
Orbital Elements at Epoch 2459200.5 (2020-Dec-17.0) TDB
Reference: JPL 15 (heliocentric ecliptic J2000)
 Element Value Uncertainty (1-sigma)   Units 
e .05948993385853502 4.5698e-08  
a 2.994275871214739 2.4702e-08 au
q 2.816146597681967 1.4586e-07 au
i 1.117234728795073 5.0492e-06 deg
node 350.9391133614471 0.00024431 deg
peri 339.6417113836786 0.00024907 deg
M 297.4411001609168 4.9682e-05 deg
tp 2459529.368853804804
(2021-Nov-10.86885380)
0.00026294 TDB
period 1892.501109742416
5.18
2.3419e-05
6.412e-08
d
yr
n .1902244591280577 2.3539e-09 deg/d
Q 3.172405144747511 2.6171e-08 au
  Orbit Determination Parameters
   # obs. used (total)      376  
   data-arc span      8649 days (23.68 yr)  
   first obs. used      1996-10-12  
   last obs. used      2020-06-17  
   planetary ephem.      DE441  
   SB-pert. ephem.      SB441-N16  
   condition code      0  
   norm. resid. RMS      .5664  
   source      ORB  
   producer      Otto Matic  
   solution date      2021-Apr-13 19:16:57  

Additional Information
 Earth MOID = 1.80318 au 
 Jupiter MOID = 2.04858 au 
 T_jup = 3.252 
[ hide covariance matrix ]
Orbital Elements at Epoch 2457395.5 (2016-Jan-08.0) TDB
Reference: JPL 15 (heliocentric ecliptic J2000)
 Element Value Uncertainty (1-sigma)   Units 
e .05820447395504169 4.589e-08  
q 2.82010628383059 1.4611e-07 au
tp 2457641.541319598026
(2016-Sep-10.04131960)
0.00025809 TDB
node 350.9798084089273 0.00024425 deg
peri 340.5111019778001 0.00024919 deg
i 1.117388912741315 5.0495e-06 deg
  Orbit Determination Parameters
   # obs. used (total)      376  
   data-arc span      8649 days (23.68 yr)  
   first obs. used      1996-10-12  
   last obs. used      2020-06-17  
   planetary ephem.      DE441  
   SB-pert. ephem.      SB441-N16  
   condition code      0  
   norm. resid. RMS      .5664  
   source      ORB  
   producer      Otto Matic  
   solution date      2021-Apr-13 19:16:57  

Additional Information
 Jupiter MOID = 2.04858 au 
 T_jup = 3.252 
Orbit Covariance (6×6)
  e q tp node peri i
e 2.105921751632162E-15 -6.625397119712144E-15 2.347055962559652E-12 -4.60099215837816E-15 5.407742294235064E-13 2.621326652131624E-16
q -6.625397119712144E-15 2.134714023878086E-14 -4.787235347997228E-12 1.611583315469841E-14 -1.225321261693092E-12 -4.514545569150785E-16
tp 2.347055962559652E-12 -4.787235347997228E-12 6.66096213824139E-8 -7.73810830135835E-11 1.275803144390097E-8 3.63091904629239E-12
node -4.60099215837816E-15 1.611583315469841E-14 -7.73810830135835E-11 5.966002430852912E-8 -5.966279119633267E-8 4.516517489434784E-10
peri 5.407742294235064E-13 -1.225321261693092E-12 1.275803144390097E-8 -5.966279119633267E-8 6.209467241900723E-8 -4.50865323353843E-10
i 2.621326652131624E-16 -4.514545569150785E-16 3.63091904629239E-12 4.516517489434784E-10 -4.50865323353843E-10 2.54977373603168E-11

Ephemeris | Orbit Diagram | Orbital Elements | Mission Design | Physical Parameters | Discovery Circumstances ]

Physical Parameter Table
Parameter Symbol Value Units Sigma Reference Notes
absolute magnitude H 15.89   n/a E2021B55  

150061 (2006 RE10)          Discovered 2006-Sep-13 by NEAT at Palomar
Reference: 20070202/Numbers.arcLast Updated: 2007-02-06

Alternate Designations
 2006 RE10 = 2001 UN199 = 2004 FN157 
Ephemeris | Orbit Diagram | Orbital Elements | Mission Design | Physical Parameters | Discovery Circumstances ]
ABOUT SSD CREDITS/AWARDS PRIVACY/COPYRIGHT GLOSSARY LINKS
FirstGov 2021-May-11 08:37 UT
(server date/time)  
NASA Home Page
Site Manager:   Ryan S. Park
Webmaster  Alan B. Chamberlin